Overview Statistics Trail Chart Weather Telemetry Raw packets
 

This is the latest recevied weather packets stored in our database for station/object K8RRT. If no packets are shown the sender has not sent any weather packets the latest 10 day(s).

<< 46 47 48 49 50 51 52 >>
Time Temp. Humidity Pressure Rain* Wind** Luminosity Snow
1788305269 30.56° C 76% 1013 hPa 0 mm - 26 W/m² -
1788304963 31.67° C 72% 1012.9 hPa 0 mm - 29 W/m² -
1788304670 31.67° C 70% 1013 hPa 0 mm - 34 W/m² -
1788304356 31.67° C 70% 1012.9 hPa 0 mm - 39 W/m² -
1788304051 31.67° C 69% 1013.1 hPa 0 mm - 41 W/m² -
1788303745 32.22° C 68% 1012.9 hPa 0 mm - 47 W/m² -
1788303440 32.22° C 69% 1012.8 hPa 0 mm - 57 W/m² -
1788303139 32.22° C 69% 1012.6 hPa 0 mm - 60 W/m² -
1788302831 32.22° C 69% 1013.1 hPa 0 mm - 58 W/m² -
1788302527 32.22° C 68% 1012.9 hPa 0 mm - 65 W/m² -
1788302223 32.78° C 67% 1012.7 hPa 0 mm - 65 W/m² -
1788301923 33.33° C 64% 1013.1 hPa 0 mm - 138 W/m² -
1788301614 33.89° C 63% 1012.9 hPa 0 mm - 141 W/m² -
1788301310 33.89° C 62% 1012.8 hPa 0 mm - 162 W/m² -
1788301005 34.44° C 62% 1013 hPa 0 mm - 177 W/m² -
1788300701 34.44° C 61% 1013.1 hPa 0 mm - 177 W/m² -
1788300399 34.44° C 60% 1013 hPa 0 mm - 201 W/m² -
1788300099 33.89° C 60% 1013.1 hPa 0 mm - 202 W/m² -
1788299798 34.44° C 61% 1013 hPa 0 mm - 209 W/m² -
1788299493 34.44° C 61% 1013.3 hPa 0 mm - 226 W/m² -
1788299191 33.89° C 60% 1013.3 hPa 0 mm - 259 W/m² -
1788298891 34.44° C 59% 1013.5 hPa 0 mm - 258 W/m² -
1788298585 34.44° C 61% 1013.5 hPa 0 mm - 269 W/m² -
1788298280 33.89° C 61% 1013.4 hPa 0 mm - 293 W/m² -
1788297980 34.44° C 57% 1013.3 hPa 0 mm - 257 W/m² -

* Rain latest hour (hover to see other rain measurements)
** Current wind speed in m/s (hover to see current wind gust speed)